TimeCDT,TemperatureF,Dew PointF,Humidity,Sea Level PressureIn,VisibilityMPH,Wind Direction,Wind SpeedMPH,Gust SpeedMPH,PrecipitationIn,Events,Conditions,WindDirDegrees,DateUTC
12:53 AM,57.2,57.2,100,30.11,10.0,South,4.6,-,N/A,,Clear,190,2014-08-13 05:53:00
1:53 AM,55.9,55.0,97,30.09,10.0,South,3.5,-,N/A,,Clear,170,2014-08-13 06:53:00
2:53 AM,55.0,55.0,100,30.09,10.0,Calm,Calm,-,N/A,,Clear,0,2014-08-13 07:53:00
3:53 AM,54.0,54.0,100,30.10,10.0,Calm,Calm,-,N/A,,Clear,0,2014-08-13 08:53:00
4:53 AM,53.1,53.1,100,30.11,10.0,Calm,Calm,-,N/A,,Clear,0,2014-08-13 09:53:00
5:50 AM,51.8,51.8,100,30.14,5.0,South,4.6,-,N/A,,Partly Cloudy,180,2014-08-13 10:50:00
5:53 AM,52.0,52.0,100,30.12,5.0,South,4.6,-,N/A,,Partly Cloudy,170,2014-08-13 10:53:00
8:53 AM,62.1,57.9,86,30.15,10.0,Calm,Calm,-,N/A,,Clear,0,2014-08-13 13:53:00
9:53 AM,69.8,60.8,73,30.16,10.0,Calm,Calm,-,N/A,,Clear,0,2014-08-13 14:53:00
10:53 AM,73.9,59.0,59,30.13,10.0,Calm,Calm,-,N/A,,Clear,0,2014-08-13 15:53:00
11:53 AM,77.0,55.9,48,30.13,10.0,ENE,5.8,-,N/A,,Clear,70,2014-08-13 16:53:00
12:53 PM,78.1,55.9,46,30.11,10.0,Variable,3.5,-,N/A,,Clear,0,2014-08-13 17:53:00
1:53 PM,79.0,54.0,42,30.10,10.0,East,3.5,-,N/A,,Clear,90,2014-08-13 18:53:00
2:53 PM,80.6,57.2,45,30.11,10.0,SE,5.8,-,N/A,,Clear,140,2014-08-13 19:53:00
3:53 PM,82.0,57.9,44,30.06,10.0,SE,5.8,-,N/A,,Clear,130,2014-08-13 20:53:00
4:53 PM,81.0,57.0,44,30.06,10.0,Calm,Calm,-,N/A,,Clear,0,2014-08-13 21:53:00
5:53 PM,81.0,55.9,42,30.05,10.0,SE,4.6,-,N/A,,Clear,140,2014-08-13 22:53:00
6:53 PM,80.1,57.9,47,30.04,10.0,Calm,Calm,-,N/A,,Clear,0,2014-08-13 23:53:00
7:53 PM,75.0,62.1,64,30.05,10.0,Calm,Calm,-,N/A,,Clear,0,2014-08-14 00:53:00
8:53 PM,68.0,62.1,81,30.05,10.0,South,4.6,-,N/A,,Clear,190,2014-08-14 01:53:00
9:53 PM,66.0,62.1,87,30.06,10.0,Calm,Calm,-,N/A,,Clear,0,2014-08-14 02:53:00
11:53 PM,63.0,62.1,97,30.07,10.0,Calm,Calm,-,N/A,,Clear,0,2014-08-14 04:53:00